FW1564 Weather Reports


Display with metric or nautical units.
time (UTC)temp
F
wind
direction
speed
MPH
gust
MPH
rain 1hr
in
rain 24hr
in
rain mn
in
humidity
%
barometer
mb
20200714220709 70 84 7.0 8.0 0.00 0.00 0.00 65 1020.7
20200714215700 70 156 0.0 8.0 0.00 0.00 0.00 59 1020.8
20200714214658 70 335 4.0 8.0 0.00 0.00 0.00 62 1020.7
20200714213645 70 315 2.0 8.0 0.00 0.00 0.00 63 1020.7
20200714212642 71 342 2.0 5.0 0.00 0.00 0.00 63 1020.7
20200714211632 71 158 3.0 8.0 0.00 0.00 0.00 63 1020.7
20200714210624 70 160 3.0 15.0 0.00 0.00 0.00 60 1020.5
20200714205626 69 216 8.0 10.0 0.00 0.00 0.00 62 1020.5
20200714204623 69 338 0.0 8.0 0.00 0.00 0.00 67 1020.8
20200714203609 69 340 5.0 5.0 0.00 0.00 0.00 67 1020.9
20200714202554 70 277 0.0 8.0 0.00 0.00 0.00 71 1020.7
20200714201551 70 164 2.0 8.0 0.00 0.00 0.00 74 1020.4
20200714200544 70 327 1.0 10.0 0.00 0.00 0.00 75 1020.5
20200714195532 71 217 0.0 8.0 0.00 0.00 0.00 78 1020.7
20200714194537 72 346 2.0 10.0 0.00 0.00 0.00 79 1020.7
20200714193517 72 226 4.0 20.0 0.00 0.00 0.00 67 1020.4
20200714192509 72 9 4.0 10.0 0.00 0.00 0.00 55 1020.7
20200714191508 72 217 3.0 10.0 0.00 0.00 0.00 75 1020.8
20200714190454 72 0 0.0 10.0 0.00 0.00 0.00 72 1021.4
20200714185449 72 106 1.0 10.0 0.00 0.00 0.00 71 1020.8
20200714184444 72 9 6.0 10.0 0.00 0.00 0.00 78 1020.9
20200714183437 72 173 6.0 8.0 0.00 0.00 0.00 76 1021.0
20200714182425 72 183 1.0 8.0 0.00 0.00 0.00 78 1021.1
20200714181417 73 163 6.0 8.0 0.00 0.00 0.00 76 1021.0
20200714180410 73 199 6.0 8.0 0.00 0.00 0.00 77 1020.9
20200714175402 73 157 4.0 13.0 0.00 0.00 0.00 76 1021.2
20200714174356 74 192 4.0 13.0 0.00 0.00 0.00 77 1021.0
20200714173348 75 203 2.0 8.0 0.00 0.00 0.00 73 1021.2
20200714172341 76 185 3.0 13.0 0.00 0.00 0.00 74 1021.3
20200714171332 76 157 3.0 10.0 0.00 0.00 0.00 65 1021.2
20200714170326 75 157 3.0 10.0 0.00 0.00 0.00 75 1021.2
20200714165317 75 239 3.0 10.0 0.00 0.00 0.00 73 1021.1
20200714164311 75 174 4.0 10.0 0.00 0.00 0.00 76 1021.1
20200714163303 76 171 2.0 10.0 0.00 0.00 0.00 75 1021.2
20200714162255 76 175 6.0 13.0 0.00 0.00 0.00 75 1021.2
20200714161248 76 155 5.0 10.0 0.00 0.00 0.00 75 1021.2
20200714160241 76 160 2.0 13.0 0.00 0.00 0.00 74 1021.3
20200714155236 76 109 6.0 8.0 0.00 0.00 0.00 72 1021.5
20200714154236 76 184 6.0 13.0 0.00 0.00 0.00 74 1021.6
20200714153233 77 116 8.0 13.0 0.00 0.00 0.00 74 1021.6
20200714152232 78 143 4.0 10.0 0.00 0.00 0.00 73 1021.6
20200714151227 78 208 1.0 10.0 0.00 0.00 0.00 73 1021.6
20200714150227 78 158 3.0 10.0 0.00 0.00 0.00 72 1021.7
20200714145225 78 72 3.0 10.0 0.00 0.00 0.00 72 1021.8
20200714144213 78 194 1.0 10.0 0.00 0.00 0.00 74 1022.0
20200714143205 77 170 6.0 10.0 0.00 0.00 0.00 72 1022.1
20200714142158 77 166 6.0 8.0 0.00 0.00 0.00 71 1022.2
20200714141152 77 178 3.0 10.0 0.00 0.00 0.00 74 1022.2
20200714140144 77 134 4.0 10.0 0.00 0.00 0.00 75 1022.2
20200714135139 76 189 3.0 10.0 0.00 0.00 0.00 72 1022.4
20200714134127 76 125 2.0 10.0 0.00 0.00 0.00 72 1022.4
20200714133121 77 161 4.0 10.0 0.00 0.00 0.00 73 1022.4
20200714132115 77 141 4.0 10.0 0.00 0.00 0.00 74 1022.4
20200714131106 78 161 4.0 10.0 0.00 0.00 0.00 71 1022.3
20200714130058 77 186 6.0 10.0 0.00 0.00 0.00 71 1022.3
20200714125050 77 174 5.0 10.0 0.00 0.00 0.00 71 1022.4
20200714124055 77 174 5.0 10.0 0.00 0.00 0.00 70 1022.3
20200714123036 76 183 5.0 8.0 0.00 0.00 0.00 71 1022.3
20200714122028 76 182 2.0 8.0 0.00 0.00 0.00 72 1022.4
20200714121022 76 187 6.0 10.0 0.00 0.00 0.00 74 1022.4
20200714120013 76 162 2.0 10.0 0.00 0.00 0.00 73 1022.5
20200714115007 76 127 7.0 10.0 0.00 0.00 0.00 73 1022.4
20200714114000 76 177 2.0 8.0 0.00 0.00 0.00 73 1022.4
20200714112952 76 141 2.0 10.0 0.00 0.00 0.00 74 1022.4
20200714111943 76 193 2.0 8.0 0.00 0.00 0.00 73 1022.4
20200714110937 76 161 3.0 8.0 0.00 0.00 0.00 71 1022.6
20200714105929 76 106 4.0 10.0 0.00 0.00 0.00 71 1022.6
20200714104926 76 195 5.0 8.0 0.00 0.00 0.00 70 1022.4
20200714103913 76 137 2.0 10.0 0.00 0.00 0.00 70 1022.5
20200714102905 75 173 0.0 8.0 0.00 0.00 0.00 71 1022.4
20200714101857 75 181 4.0 8.0 0.00 0.00 0.00 69 1022.3
20200714100906 75 168 2.0 8.0 0.00 0.00 0.00 67 1022.3
20200714095844 75 147 2.0 8.0 0.00 0.00 0.00 68 1022.2
20200714094849 74 134 0.0 8.0 0.00 0.00 0.00 67 1022.0
20200714093829 74 165 4.0 8.0 0.00 0.00 0.00 68 1022.0
20200714092821 74 188 0.0 8.0 0.00 0.00 0.00 69 1021.9
20200714090807 74 163 0.0 5.0 0.00 0.00 0.00 65 1022.0
20200714085802 73 118 1.0 5.0 0.00 0.00 0.00 63 1021.8
20200714084756 72 339 3.0 5.0 0.00 0.00 0.00 52 1021.8
20200714083744 72 5 2.0 5.0 0.00 0.00 0.00 51 1021.9
20200714082741 72 12 2.0 8.0 0.00 0.00 0.00 52 1021.9
20200714081731 72 18 4.0 10.0 0.00 0.00 0.00 46 1021.7
20200714080729 72 343 7.0 13.0 0.00 0.00 0.00 44 1021.7
20200714075713 71 340 8.0 10.0 0.00 0.00 0.00 43 1021.7
20200714074710 71 346 7.0 13.0 0.00 0.00 0.00 43 1021.8
20200714073658 71 331 5.0 8.0 0.00 0.00 0.00 45 1021.8
20200714072651 70 349 6.0 13.0 0.00 0.00 0.00 41 1021.6
20200714071643 68 341 7.0 10.0 0.00 0.00 0.00 36 1021.5
20200714070639 68 324 2.0 5.0 0.00 0.00 0.00 48 1021.5
20200714065629 68 350 2.0 5.0 0.00 0.00 0.00 47 1021.4
20200714064622 69 306 3.0 8.0 0.00 0.00 0.00 49 1021.5
20200714063616 69 240 0.0 10.0 0.00 0.00 0.00 47 1021.4
20200714062610 68 344 0.0 10.0 0.00 0.00 0.00 43 1021.2
20200714061600 67 344 5.0 10.0 0.00 0.00 0.00 49 1021.4
20200714060551 66 340 6.0 8.0 0.00 0.00 0.00 49 1021.3
20200714055549 65 326 5.0 8.0 0.00 0.00 0.00 53 1021.2
20200714054552 64 227 0.0 13.0 0.00 0.00 0.00 56 1021.2
20200714053546 63 281 0.0 2.0 0.00 0.00 0.00 60 1021.2
20200714052544 62 188 0.0 5.0 0.00 0.00 0.00 61 1021.3
20200714051541 61 233 1.0 5.0 0.00 0.00 0.00 82 1021.3
20200714050546 61 333 2.0 5.0 0.00 0.00 0.00 81 1021.5
20200714045541 61 321 0.0 5.0 0.00 0.00 0.00 81 1021.5
20200714044525 61 311 0.0 8.0 0.00 0.00 0.00 89 1021.6
20200714043521 61 343 3.0 5.0 0.00 0.00 0.00 90 1021.6
20200714042512 61 328 1.0 5.0 0.00 0.00 0.00 91 1021.7
20200714041505 61 290 0.0 5.0 0.00 0.00 0.00 91 1021.8
20200714040456 61 337 0.0 8.0 0.00 0.00 0.00 92 1021.8
20200714035451 61 344 5.0 8.0 0.00 0.00 0.00 91 1021.7
20200714034443 61 324 2.0 8.0 0.00 0.00 0.00 91 1021.9
20200714033437 62 316 2.0 8.0 0.00 0.00 0.00 91 1022.1
20200714032428 62 355 1.0 5.0 0.00 0.00 0.00 92 1022.1
20200714031419 63 286 0.0 8.0 0.00 0.00 0.00 92 1022.2
20200714030413 63 351 5.0 8.0 0.00 0.00 0.00 92 1022.4
20200714025406 62 53 2.0 5.0 0.00 0.00 0.00 91 1022.4
20200714024359 62 334 3.0 8.0 0.00 0.00 0.00 91 1022.4
20200714023353 62 211 1.0 5.0 0.00 0.00 0.00 91 1022.3
20200714022343 62 327 2.0 10.0 0.00 0.00 0.00 90 1022.8
20200714021340 62 334 2.0 5.0 0.00 0.00 0.00 90 1022.5
20200714020329 63 313 0.0 5.0 0.00 0.00 0.00 91 1022.8
20200714015321 63 335 1.0 5.0 0.00 0.00 0.00 90 1023.0
20200714014318 63 21 0.0 8.0 0.00 0.00 0.00 90 1023.1
20200714013311 63 349 1.0 5.0 0.00 0.00 0.00 91 1023.2
20200714012301 63 353 2.0 8.0 0.00 0.00 0.00 90 1023.1
20200714011252 63 23 2.0 5.0 0.00 0.00 0.00 91 1023.4
20200714010245 64 325 1.0 8.0 0.00 0.00 0.00 91 1023.3
20200714005241 63 305 0.0 5.0 0.00 0.00 0.00 90 1023.6
20200714004232 63 108 2.0 5.0 0.00 0.00 0.00 91 1023.6
20200714003221 63 308 0.0 8.0 0.00 0.00 0.00 90 1023.6
20200714002215 63 344 2.0 5.0 0.00 0.00 0.00 90 1023.6
20200714001212 63 332 4.0 10.0 0.00 0.00 0.00 90 1023.8
20200714000201 63 343 3.0 5.0 0.00 0.00 0.00 89 1023.8
20200713235201 63 263 0.0 5.0 0.00 0.00 0.00 88 1023.8
20200713234145 63 328 0.0 8.0 0.00 0.00 0.00 88 1023.8
20200713233137 63 354 0.0 5.0 0.00 0.00 0.00 89 1023.7
20200713232137 63 348 0.0 8.0 0.00 0.00 0.00 89 1023.8
20200713231127 64 349 2.0 5.0 0.00 0.00 0.00 89 1023.7
20200713230119 64 334 5.0 10.0 0.00 0.00 0.00 90 1023.9
20200713225110 64 328 5.0 8.0 0.00 0.00 0.00 89 1024.0
20200713224100 64 334 3.0 5.0 0.00 0.00 0.00 89 1023.9
20200713223054 65 344 5.0 8.0 0.00 0.00 0.00 89 1024.0
20200713222046 65 343 2.0 5.0 0.00 0.00 0.00 88 1024.0
20200713221042 65 341 2.0 5.0 0.00 0.00 0.00 89 1023.8